Wind_Speed
30 30 30 31 32 34 35 36 36 33 33 32 33 32 32 32 32 32 32 32 33 32 32 32 33 33 33 32 33 34 34 35 35 36 36 37 37 38 38 38 39 39 40 40
28 28 30 31 31 32 34 35 35 34 33 32 32 32 32 32 32 32 32 31 32 32 32 32 32 32 32 32 33 34 35 35 35 35 35 36 36 36 37 37 37 38 39 40
26 27 28 29 29 31 33 35 35 34 32 32 32 32 32 32 32 32 32 32 31 32 32 32 31 31 31 32 32 33 34 35 35 34 35 35 35 35 36 36 37 38 39 41
25 26 27 27 27 28 30 32 34 34 33 32 32 32 32 32 31 31 32 32 33 32 32 31 31 31 31 31 32 32 33 34 34 34 34 35 35 35 35 37 38 38 39 41
25 25 26 27 26 26 28 30 32 32 32 32 32 32 32 33 32 31 32 33 34 33 32 32 31 30 30 31 31 31 32 33 33 34 34 34 34 35 35 36 37 38 40 41
26 26 26 25 25 25 27 28 29 31 31 31 32 32 31 33 33 32 32 34 35 34 33 32 32 31 30 31 31 31 31 32 33 34 34 34 35 35 35 36 37 38 39 40
26 27 26 25 25 26 27 27 27 29 30 30 31 31 32 33 33 33 33 33 34 34 34 33 32 32 32 31 31 31 32 32 33 34 34 35 35 36 36 37 38 38 39 38
25 25 24 24 25 26 26 27 27 28 29 30 31 31 32 32 33 33 33 33 33 34 34 34 33 33 33 33 32 32 32 33 33 33 34 35 35 36 36 36 37 37 36 36
22 22 21 23 24 24 25 26 26 27 28 29 30 31 31 31 32 33 33 33 33 33 33 34 34 33 33 33 33 33 33 33 32 33 33 33 34 35 35 35 35 35 35 34
21 22 23 23 24 23 23 24 25 25 26 27 28 28 28 29 30 31 32 32 32 32 33 33 33 33 33 33 33 33 33 33 33 32 32 33 33 34 33 33 33 32 32 31
21 21 22 23 23 23 22 23 23 24 24 25 25 26 27 27 28 29 30 30 31 32 32 32 32 33 33 33 33 33 33 33 33 33 32 32 32 31 31 31 31 31 30 29
19 19 20 20 21 22 22 22 22 23 23 24 24 25 25 26 27 28 28 28 29 30 31 31 32 32 32 33 33 33 33 33 33 32 32 31 30 29 29 29 29 28 28 28
19 19 19 19 20 21 21 21 21 21 22 23 23 23 24 25 26 27 27 28 28 29 30 30 30 31 31 32 32 31 31 31 31 30 29 29 28 29 28 27 27 26 27 27
18 19 18 19 19 20 21 21 21 21 21 22 22 23 23 24 24 25 26 26 27 27 28 28 28 29 30 30 30 30 29 29 28 27 27 27 27 27 26 26 26 26 26 26
18 18 18 19 19 19 20 20 20 21 21 21 22 22 22 23 24 24 24 24 24 25 26 26 27 27 27 27 28 28 27 27 26 26 26 26 26 26 25 25 25 26 26 25
17 18 19 19 19 20 20 20 20 20 20 21 21 22 21 21 22 23 24 23 23 23 24 24 24 24 25 25 25 25 25 25 24 25 25 25 25 25 25 24 24 24 24 24
18 18 18 19 19 20 20 20 20 20 21 21 21 21 21 21 22 22 23 23 23 23 23 23 23 23 22 23 23 23 23 23 24 24 24 24 23 23 23 23 23 23 23 22
17 17 17 17 18 19 20 20 21 21 21 21 21 21 21 21 21 22 22 21 21 21 22 22 21 22 22 22 22 22 22 22 22 23 23 22 22 22 22 22 22 21 21 21
16 17 16 16 17 18 19 19 19 20 20 21 20 20 20 20 19 20 20 21 21 20 20 20 20 21 21 21 21 21 21 21 21 22 22 21 20 20 20 20 20 20 20 21
18 18 17 16 16 17 17 18 18 18 19 19 19 19 19 19 19 19 20 20 20 20 20 20 21 21 20 20 20 20 20 21 21 21 21 20 20 20 20 20 19 20 20 20
19 18 17 16 17 17 17 17 17 17 17 17 18 18 18 18 18 18 19 19 19 19 20 20 20 20 19 19 19 19 20 20 21 21 20 20 20 19 19 19 20 20 20 21
18 18 17 17 16 17 17 17 17 17 17 18 17 17 17 17 17 17 18 19 19 19 19 19 19 19 18 18 19 19 20 20 20 20 19 19 19 19 19 19 19 20 21 22
19 19 18 18 17 17 17 17 16 17 17 18 17 17 17 17 17 17 17 17 18 19 19 19 19 19 19 19 19 19 20 19 19 18 18 18 19 19 19 20 20 21 22 22
18 18 18 18 17 17 17 17 17 17 18 18 18 18 18 18 17 17 17 18 18 18 17 17 17 17 18 18 19 18 18 18 18 18 18 18 19 19 19 20 20 21 22 21
17 17 17 17 17 17 17 16 17 17 17 17 17 17 17 17 17 17 18 17 17 17 17 16 16 16 16 16 16 16 16 16 17 17 17 18 18 19 19 19 20 21 20 19
16 17 17 17 16 16 16 16 16 16 16 16 16 16 17 17 17 17 17 17 17 17 17 16 16 16 16 16 15 16 16 16 16 17 18 18 18 19 19 20 20 20 19 18
16 16 16 16 16 15 16 15 15 15 15 15 15 15 16 16 17 17 17 17 17 17 17 17 17 16 16 16 16 17 17 17 17 18 18 18 18 19 19 19 19 18 18 17
Wind_Direction
235 235 235 234 233 232 233 235 238 238 239 239 240 239 237 236 237 238 239 240 241 243 245 247 248 250 252 255 257 259 261 263 265 267 268 271 273 275 276 278 280 281 283 284
233 234 236 235 234 234 233 234 237 238 238 238 238 239 238 238 237 237 237 238 239 242 245 247 249 250 252 255 257 259 261 263 266 268 269 272 274 275 277 279 280 282 283 284
232 234 235 235 234 235 235 236 238 238 238 236 237 239 239 239 239 238 238 238 239 241 244 247 249 251 254 256 258 260 262 264 266 268 271 274 274 276 277 279 281 283 284 285
235 234 236 234 235 236 237 238 239 238 236 235 236 238 239 239 240 241 239 239 240 241 244 246 249 251 254 257 260 262 263 265 267 269 272 274 275 277 279 280 282 284 285 287
237 239 238 235 236 236 236 235 236 236 236 237 237 238 239 240 240 241 241 240 241 242 245 247 249 252 255 258 260 262 265 266 268 270 272 273 275 277 278 281 283 285 287 290
238 241 241 238 239 237 237 236 235 237 237 238 238 239 240 241 241 242 244 243 243 244 246 248 250 253 257 259 260 263 266 268 270 271 272 273 275 276 278 281 284 286 289 291
239 242 243 243 242 240 239 238 238 240 240 240 241 241 241 242 243 244 245 246 245 247 248 249 252 255 258 260 261 264 267 269 270 272 273 274 275 277 279 282 284 287 290 292
238 241 243 244 245 244 242 241 240 241 242 242 242 242 243 244 244 245 246 246 247 247 249 251 253 256 259 261 263 266 268 270 272 272 273 274 276 277 279 282 285 288 291 292
239 242 243 244 246 246 244 243 243 244 244 244 243 244 245 246 247 247 247 247 247 248 249 251 253 256 260 262 265 266 268 270 272 272 273 275 277 278 281 283 286 288 290 291
241 241 242 244 245 245 246 244 243 244 244 244 245 247 247 247 247 248 248 247 248 248 250 252 254 256 259 262 265 266 267 270 271 273 274 276 278 280 282 284 286 288 290 290
242 243 242 243 245 246 246 245 244 244 244 245 245 246 247 247 247 247 247 248 249 249 250 252 254 257 260 263 265 266 267 270 271 272 274 276 278 280 282 284 287 288 289 291
240 241 241 241 242 244 246 246 245 246 246 246 246 245 246 246 247 247 248 249 250 251 252 254 256 257 259 262 263 265 267 268 269 270 272 276 279 281 284 286 287 288 290 292
239 239 241 242 243 245 246 246 246 247 247 246 246 245 244 244 246 248 249 250 250 252 253 254 255 256 258 260 262 263 264 265 265 268 271 275 278 282 285 286 286 288 291 294
239 240 242 243 244 245 247 247 247 246 247 246 246 246 246 244 245 248 249 250 250 251 252 252 254 255 257 258 259 261 262 263 264 266 270 274 278 281 283 284 285 288 292 294
243 243 244 245 245 246 247 249 248 247 247 247 247 247 248 247 246 247 248 250 250 251 251 251 252 253 254 254 256 259 261 261 263 267 270 273 276 280 282 284 286 289 291 293
245 246 247 246 245 246 247 248 248 247 248 249 249 248 248 248 247 247 248 251 251 251 251 251 251 252 254 255 258 260 261 261 262 266 271 275 278 279 281 284 287 289 290 291
247 248 248 248 247 246 246 247 250 250 250 250 250 250 249 249 250 250 250 250 250 251 249 250 251 252 253 256 259 261 261 261 264 268 272 276 279 280 281 284 286 288 288 289
245 245 248 250 250 248 248 249 250 250 250 251 251 250 248 249 249 249 247 247 249 251 250 250 251 252 255 257 259 260 262 263 267 270 273 277 278 280 283 285 286 286 286 290
243 246 248 249 249 249 248 249 249 249 249 249 247 247 248 247 247 247 246 245 246 247 248 249 251 255 257 259 259 261 264 266 268 270 272 274 276 279 283 285 286 284 287 291
247 248 249 250 251 250 248 248 248 248 247 246 244 245 245 245 246 248 247 246 246 247 249 251 253 255 257 259 259 261 264 266 268 269 271 273 276 280 283 284 286 287 290 292
246 247 248 250 251 250 247 246 246 246 245 244 243 243 243 245 246 247 246 246 247 248 250 252 254 256 257 257 258 261 263 265 267 269 269 271 275 280 282 284 287 290 292 294
246 246 248 249 250 249 247 245 245 244 244 243 242 242 242 245 247 248 248 247 248 250 251 254 257 258 258 257 260 262 264 265 266 267 268 271 275 280 283 287 290 291 295 297
247 247 248 248 247 246 245 244 244 244 243 242 243 243 244 246 248 248 249 249 249 250 252 256 258 258 258 259 261 263 263 264 264 266 269 272 276 280 284 288 291 294 297 298
247 246 244 243 243 244 244 243 243 243 243 243 245 246 246 246 247 248 247 247 248 251 254 257 258 258 259 261 261 261 261 262 264 267 271 275 279 281 284 287 291 295 297 297
244 242 241 241 243 243 242 241 241 243 246 246 245 245 244 245 247 249 248 247 249 252 254 254 256 258 260 260 260 259 260 264 267 271 275 278 280 283 285 289 293 296 297 298
242 240 239 240 242 242 241 241 241 242 243 243 243 243 243 244 246 247 246 247 250 251 252 253 256 258 257 258 261 263 265 268 272 275 277 279 281 284 287 289 292 293 294 296
242 241 240 239 239 240 240 240 240 240 240 241 243 243 243 242 244 246 247 248 249 249 251 255 257 257 258 260 264 267 269 273 276 277 279 280 283 286 288 289 290 291 292 292
Height
5548 5551 5554 5557 5561 5564 5567 5571 5575 5580 5583 5587 5590 5593 5597 5600 5604 5608 5611 5614 5617 5620 5622 5624 5626 5628 5630 5631 5632 5632 5633 5633 5633 5632 5632 5631 5629 5628 5626 5625 5623 5621 5619 5616
5541 5544 5546 5549 5553 5556 5560 5563 5567 5571 5576 5579 5581 5585 5588 5592 5595 5599 5602 5605 5608 5611 5613 5615 5617 5619 5621 5622 5623 5623 5623 5624 5623 5623 5622 5621 5620 5618 5617 5615 5613 5611 5609 5607
5534 5537 5539 5543 5547 5549 5553 5556 5560 5563 5569 5571 5574 5577 5580 5584 5587 5590 5593 5597 5599 5602 5604 5607 5608 5610 5612 5613 5613 5614 5614 5614 5614 5613 5613 5612 5610 5609 5608 5606 5604 5602 5599 5597
5527 5531 5533 5539 5540 5542 5545 5549 5552 5555 5559 5562 5565 5568 5572 5575 5579 5582 5585 5588 5591 5593 5596 5598 5600 5601 5602 5603 5604 5605 5605 5605 5605 5604 5603 5602 5601 5600 5598 5596 5594 5592 5589 5587
5521 5523 5527 5531 5534 5536 5538 5541 5544 5548 5551 5555 5557 5560 5564 5567 5570 5573 5576 5579 5582 5584 5587 5589 5591 5592 5594 5595 5595 5596 5596 5595 5595 5594 5594 5593 5591 5590 5588 5587 5585 5582 5579 5576
5516 5518 5521 5526 5528 5529 5532 5534 5538 5540 5544 5547 5550 5553 5557 5559 5562 5565 5567 5570 5573 5575 5578 5580 5582 5583 5585 5586 5586 5587 5587 5586 5586 5585 5584 5583 5582 5581 5579 5577 5575 5572 5569 5566
5510 5512 5515 5519 5520 5523 5527 5530 5531 5533 5536 5539 5542 5546 5549 5550 5553 5556 5558 5561 5564 5566 5569 5571 5573 5574 5576 5576 5577 5577 5577 5577 5576 5576 5575 5574 5573 5571 5569 5567 5565 5562 5559 5556
5504 5506 5512 5512 5514 5517 5519 5521 5523 5526 5528 5531 5534 5537 5539 5542 5544 5547 5550 5552 5555 5557 5559 5561 5563 5565 5566 5567 5568 5568 5568 5568 5567 5566 5565 5564 5563 5562 5560 5557 5555 5553 5550 5547
5499 5503 5505 5506 5507 5509 5511 5514 5516 5518 5521 5524 5526 5528 5531 5534 5536 5538 5541 5543 5546 5548 5550 5552 5554 5555 5557 5557 5558 5558 5558 5558 5558 5557 5556 5555 5554 5552 5550 5548 5546 5543 5541 5538
5493 5496 5498 5499 5501 5503 5505 5507 5509 5511 5513 5516 5518 5521 5523 5525 5527 5529 5532 5534 5536 5539 5541 5543 5544 5546 5547 5548 5548 5549 5549 5549 5548 5548 5547 5546 5544 5543 5541 5539 5537 5535 5532 5530
5488 5490 5492 5493 5495 5497 5499 5501 5503 5505 5507 5509 5511 5513 5515 5517 5519 5521 5523 5525 5527 5529 5531 5533 5534 5535 5537 5538 5539 5539 5539 5539 5539 5539 5538 5537 5536 5534 5532 5530 5528 5526 5524 5522
5483 5484 5486 5487 5489 5491 5493 5495 5496 5498 5500 5502 5504 5506 5508 5509 5511 5513 5515 5517 5518 5520 5522 5523 5525 5526 5527 5528 5529 5530 5530 5530 5530 5530 5529 5528 5527 5526 5524 5522 5520 5518 5516 5514
5477 5478 5480 5482 5483 5485 5487 5489 5490 5492 5494 5495 5497 5498 5500 5502 5504 5505 5507 5508 5510 5511 5513 5514 5516 5517 5518 5519 5520 5520 5521 5521 5521 5521 5520 5520 5519 5518 5517 5515 5512 5511 5509 5506
5472 5473 5475 5477 5478 5479 5481 5483 5484 5486 5487 5489 5490 5492 5493 5495 5497 5498 5500 5501 5502 5503 5505 5506 5507 5508 5509 5510 5511 5512 5512 5512 5513 5513 5512 5512 5511 5510 5508 5507 5506 5504 5502 5499
5467 5468 5470 5471 5473 5474 5475 5477 5479 5480 5481 5483 5484 5486 5487 5489 5490 5491 5493 5494 5495 5496 5497 5498 5499 5500 5501 5502 5503 5503 5504 5504 5504 5505 5504 5504 5503 5502 5501 5499 5498 5497 5495 5493
5461 5463 5464 5466 5467 5469 5470 5471 5473 5474 5475 5477 5478 5479 5481 5482 5483 5485 5486 5487 5488 5489 5490 5491 5492 5493 5493 5494 5495 5496 5496 5497 5497 5497 5497 5496 5495 5494 5493 5492 5491 5489 5488 5486
5456 5457 5459 5460 5461 5462 5464 5465 5467 5468 5469 5470 5472 5473 5474 5476 5477 5478 5479 5480 5481 5482 5483 5484 5485 5486 5487 5487 5488 5488 5489 5489 5490 5490 5489 5489 5488 5487 5487 5485 5484 5483 5481 5479
5451 5452 5453 5454 5455 5456 5458 5459 5461 5462 5463 5464 5465 5467 5468 5469 5470 5471 5472 5473 5474 5476 5477 5477 5479 5480 5480 5481 5482 5482 5482 5483 5483 5483 5483 5482 5481 5481 5480 5479 5478 5477 5475 5474
5446 5447 5448 5449 5449 5450 5452 5453 5454 5456 5457 5458 5459 5460 5462 5463 5464 5465 5466 5467 5468 5470 5471 5472 5473 5474 5474 5475 5475 5476 5476 5476 5477 5476 5476 5476 5475 5475 5474 5473 5472 5470 5469 5468
5440 5441 5442 5443 5444 5445 5446 5447 5448 5450 5451 5452 5454 5455 5456 5457 5458 5459 5460 5461 5463 5464 5465 5466 5467 5467 5468 5468 5469 5470 5470 5470 5470 5470 5470 5470 5470 5469 5468 5467 5466 5465 5463 5462
5435 5436 5437 5438 5439 5440 5441 5442 5443 5444 5445 5447 5448 5449 5450 5451 5453 5454 5455 5456 5457 5458 5459 5460 5461 5461 5462 5462 5463 5464 5464 5464 5464 5464 5464 5464 5464 5463 5462 5461 5460 5459 5457 5456
5429 5430 5431 5432 5433 5434 5435 5436 5438 5439 5440 5441 5443 5444 5445 5446 5447 5448 5449 5451 5452 5453 5454 5455 5455 5455 5456 5457 5457 5458 5458 5458 5458 5458 5458 5458 5458 5457 5457 5456 5454 5453 5451 5449
5422 5424 5425 5426 5428 5429 5430 5431 5432 5434 5435 5436 5437 5439 5440 5441 5442 5443 5444 5445 5446 5447 5448 5449 5449 5450 5450 5451 5451 5452 5452 5452 5452 5452 5452 5452 5452 5451 5451 5450 5448 5447 5445 5443
5416 5417 5419 5420 5422 5423 5424 5426 5427 5428 5429 5431 5432 5433 5434 5436 5437 5438 5439 5440 5441 5442 5442 5443 5443 5444 5444 5445 5445 5446 5446 5446 5447 5447 5447 5446 5446 5445 5444 5443 5442 5440 5438 5436
5410 5411 5413 5415 5416 5418 5419 5420 5421 5423 5424 5425 5427 5428 5429 5430 5432 5432 5433 5435 5436 5436 5437 5438 5438 5439 5439 5439 5440 5440 5441 5441 5441 5441 5441 5440 5440 5439 5438 5437 5436 5434 5432 5430
5405 5406 5408 5409 5411 5413 5414 5415 5417 5418 5419 5420 5422 5423 5424 5425 5426 5427 5428 5429 5430 5431 5432 5433 5433 5434 5434 5434 5435 5435 5435 5435 5435 5435 5435 5434 5434 5433 5432 5430 5429 5427 5426 5424
5400 5401 5403 5404 5406 5408 5409 5411 5412 5413 5415 5416 5417 5418 5419 5420 5421 5422 5423 5424 5425 5426 5427 5427 5428 5428 5429 5429 5429 5429 5430 5429 5429 5429 5429 5428 5427 5426 5425 5424 5423 5421 5420 5418